Find Starlink 37158

NORAD ID: 68343 Int'l Des: 2026-059 Owner: SPXS Country: US Constellation: starlink operational
LEOCIRCULAR

Live-Position

3D-Globus wird geladen...

Über Starlink 37158

Beschreibung wird geladen...

Nächste Überflüge

Passes for default location (London). Set your location on the main map for personalized predictions.

Höhenverlauf

Loading altitude history...

Zweizeiliger Elementsatz

1 68343U 26059Y 26127.14497969 .00023965 00000-0 43757-3 0 9997
2 68343 53.1592 74.7347 0000931 105.9079 254.2032 15.49311997 7157
Epoch: 7. Mai 2026 • Age: 13 hours

Aktueller Status

Höhe 423.8 km
Geschwindigkeit 7.66 km/s
Subsatellitenpunkt 49.35°N, 24.33°E
Startdatum 22. März 2026
Alter 0.1 years
Typ internet

Technische Details

Klassifizierung Payload
Masse 575.00 kg
Trockenmasse 530.00 kg
Gesamtmasse 575.00 kg
Länge 0.30 m
Durchmesser 4.10 m
Spannweite 29.00 m
Form Box + pan
Hersteller SPXS
Bus-Typ Starlink V2MO
Phasenstatus In Orbit
Besitzer/Staat SPXS/US

Most Searched